Location: Celina Elementary School
(33.3262°N, 96.7767°W)
Time: 07:18:59
(UTC+00:00)

Meteor 1-26 Rocket - Pass Details

Date: 26 November 2021
Orbit: 807 x 929 km, 81.3° (Epoch: 19 January)

Event Time Altitude Azimuth Distance (km) Brightness Sun altitude
Rises 12:30:37 0° 348° (NNW) 3,569 7.1 -8.2°
Reaches altitude 10° 12:33:08 10° 346° (NNW) 2,613 6.4 -7.7°
Maximum altitude 12:39:02 66° 265° (W) 976 4.4 -6.5°
Drops below altitude 10° 12:44:45 10° 184° (S) 2,528 6.9 -5.4°
Sets 12:47:10 0° 182° (S) 3,444 7.7 -5.0°
